Miscellaneous Local Product
Issued by NWS Hastings, NE

Home | Current Version | Previous Version | Graphics & Text | Print | Product List | Glossary On
Versions: 1 2 3 4 5 6 7 8 9 10 11 12 13 14 15 16 17 18 19 20 21 22 23 24 25 26 27 28 29 30 31 32 33 34 35 36 37 38 39 40 41 42 43 44 45 46 47 48 49 50
000
AXUS43 KGID 061302
MISGRI

GID CWA HOURLY WEATHER ROUNDUP
NATIONAL WEATHER SERVICE HASTINGS NE
700 AM CST TUE DEC 06 2016

NOTE: "FAIR" INDICATES FEW OR NO CLOUDS BELOW 12,000 FEET WITH NO
SIGNIFICANT WEATHER AND/OR OBSTRUCTIONS TO VISIBILITY.

...SOUTH CENTRAL NEBRASKA...

CITY           SKY/WX    TMP DP  RH WIND       PRES   REMARKS
GRAND ISLAND   CLEAR     19  12  74 NW8       30.01R WCI   9
HASTINGS       CLEAR     20  13  74 NW8       30.02R WCI  10
KEARNEY        CLEAR     18  10  73 W9        30.02R WCI   6
ORD            CLEAR     16  10  77 W9        29.98R WCI   4
YORK           CLEAR     19  14  79 NW10      29.99S WCI   8
AURORA         CLEAR     22  12  65 NW16G23   30.00R WCI   8
LEXINGTON      CLEAR     18  11  76 W8        30.02R WCI   7
HOLDREGE       CLEAR     20  11  67 NW14      30.02R WCI   7
HEBRON         CLEAR     22  16  75 NW7       30.03R WCI  14

...NEBRASKA PANHANDLE...

CITY           SKY/WX    TMP DP  RH WIND       PRES   REMARKS
CHADRON        CLEAR      9   2  73 SW12      30.00R WCI  -6
ALLIANCE       CLEAR      1  -4  79 SW8       29.95S WCI -13
SCOTTSBLUFF    CLEAR      4  -2  76 N9        29.98S WCI -10
SIDNEY         CLEAR      4  -1  80 W7        29.96S WCI  -8

...WESTERN AND NORTH CENTRAL NEBRASKA...

CITY           SKY/WX    TMP DP  RH WIND       PRES   REMARKS
VALENTINE      CLEAR     10   3  73 W10       29.96R WCI  -4
AINSWORTH      CLEAR     14   8  78 W9        29.95R WCI   1
ONEILL         CLEAR     19   6  57 NW21G29   29.93S WCI   2
BROKEN BOW     CLEAR     14   9  80 W8        29.98R WCI   3
IMPERIAL       CLEAR     13   4  67 NW8       30.01S WCI   2
NORTH PLATTE   CLEAR     14   7  73 W8        30.00R WCI   3
MCCOOK         CLEAR     17   7  64 W9        30.05R WCI   6

...EASTERN NEBRASKA...

CITY           SKY/WX    TMP DP  RH WIND       PRES   REMARKS
NORFOLK        NOT AVBL
SO SIOUX CITY  CLEAR     19  11  70 W9        29.95R WCI   8
TEKAMAH        CLEAR     21  11  65 NW10      29.99R WCI  10
COLUMBUS       CLEAR     19   9  63 W9        29.99R WCI   9
ALBION         CLEAR     21   8  56 NW17G23   29.97R WCI   7
OMAHA EPPLEY   CLEAR     23  11  60 NW17      29.99R WCI   9
OFFUTT AFB     CLEAR     21  14  74 NW9       29.99R WCI  11
MILLARD        CLEAR     25  12  59 NW13      29.99R WCI  13
LINCOLN        PTCLDY    24  11  57 NW12      30.01S WCI  13
NEBRASKA CITY  CLEAR     25  12  56 NW9       29.99R WCI  16
BEATRICE       PTCLDY    24  15  68 NW12      30.01R WCI  13
FALLS CITY     CLEAR     28  20  71 NW13      29.99R WCI  17

...NORTHERN KANSAS...

CITY           SKY/WX    TMP DP  RH WIND       PRES   REMARKS
GOODLAND       CLOUDY     8   3  80 W9        30.02S WCI  -5
HILL CITY      CLEAR     21  10  62 NW13G20   30.06R WCI   9
NORTON         SUNNY     16   7  67 W9        30.04R WCI   4
PHILLIPSBURG   CLEAR     23  14  68 NW12      30.05S WCI  12
SMITH CENTER   CLEAR     16  12  86 NW8       30.05R WCI   5
BELOIT         CLEAR     21  16  79 W3        30.06R
HAYS           CLEAR     23  14  68 NW8       30.06R WCI  14
RUSSELL        CLEAR     20  15  81 NW10      30.05R WCI   9
CONCORDIA      CLEAR     24  16  71 NW10      30.05R WCI  14
SALINA         CLEAR     27  19  72 NW10      30.06R WCI  17
TOPEKA         PTCLDY    31  21  66 NW9       30.00R WCI  23



USA.gov is the U.S. government's official web portal to all federal, state and local government web resources and services.